Falfurrias, TX

7:57 PM CST on November 18, 2017 (GMT -0600)
Falfurrias

Weather History for KBKS - February, 2012

Change the Weather History Date:

Saturday, February 18, 2012

  Actual Average (KNQI) Record (KNQI)
Temperature  
Mean Temperature 65 °F -  
Max Temperature 73 °F 71 °F 89 °F (2017)
Min Temperature 57 °F 51 °F 34 °F (2015)
Growing Degree Days 15 (Base 50)    
Moisture  
Dew Point 54 °F    
Average Humidity 72    
Maximum Humidity 94    
Minimum Humidity 29    
Precipitation  
Precipitation 0.02 in - - ()
Sea Level Pressure  
Sea Level Pressure 29.87 in    
Wind  
Wind Speed 10 mph (NW)    
Max Wind Speed 24 mph    
Max Gust Speed 33 mph    
Visibility 8 miles    
Events      
Averages and records for this station are not official NWS values.
T = Trace of Precipitation, MM = Missing Value Source: NWS Daily Summary

Daily Weather History Graph

Daily Weather History Graph

Search for Another Location

Airport or City:

Trip Planner

Search our weather history database for the weather conditions in past years. The results will help you decide how hot, cold, wet, or windy it might be!

Date:

Astronomy

Feb. 18, 2012 Rise Set
Actual Time 7:07 AM CST 6:26 PM CST
Civil Twilight 6:43 AM CST 6:49 PM CST
Nautical Twilight 6:16 AM CST 7:17 PM CST
Astronomical Twilight 5:49 AM CST 7:44 PM CST
Moon 4:34 AM CST (2/18) 3:36 PM CST (2/18)
Length of Visible Light 12h 06m
Length of Day
11h 19m
Waning Crescent, 11% of the Moon is Illuminated
Feb 18
Waning Crescent
Feb 21
New
Feb 29
First Quarter
Mar 8
Full
Mar 14
Last Quarter

Hourly Weather History & Observations

Time (CST) Temp. Dew Point Humidity Pressure Visibility Wind Dir Wind Speed Gust Speed Precip Events Conditions
12:15 AM 69.8 °F 68.0 °F 94% 29.80 in 4.0 mi SE 6.9 mph - N/A   Overcast
12:35 AM 69.8 °F 68.0 °F 94% 29.79 in 4.0 mi SE 6.9 mph - N/A   Overcast
12:55 AM 69.8 °F 68.0 °F 94% 29.79 in 4.0 mi SE 9.2 mph - N/A   Overcast
1:15 AM 69.8 °F 68.0 °F 94% 29.78 in 4.0 mi SSE 6.9 mph - N/A   Overcast
1:35 AM 69.8 °F 68.0 °F 94% 29.78 in 3.0 mi SSE 5.8 mph - N/A   Overcast
1:55 AM 69.8 °F 68.0 °F 94% 29.78 in 3.0 mi SE 4.6 mph - N/A   Overcast
2:15 AM 69.8 °F 68.0 °F 94% 29.77 in 3.0 mi SSE 4.6 mph - N/A   Overcast
2:35 AM 69.8 °F 68.0 °F 94% 29.76 in 3.0 mi SSE 6.9 mph - 0.01 in   Overcast
2:55 AM 69.8 °F 68.0 °F 94% 29.76 in 3.0 mi South 4.6 mph - 0.01 in   Overcast
3:15 AM 69.8 °F 68.0 °F 94% 29.75 in 4.0 mi SSE 6.9 mph - N/A   Overcast
3:35 AM 69.8 °F 68.0 °F 94% 29.75 in 2.5 mi SSE 5.8 mph - N/A   Overcast
3:55 AM 69.8 °F 68.0 °F 94% 29.76 in 1.5 mi WSW 11.5 mph - N/A   Overcast
4:15 AM 64.4 °F 62.6 °F 94% 29.74 in 4.0 mi West 5.8 mph - N/A   Overcast
4:35 AM 64.4 °F 62.6 °F 94% 29.72 in 7.0 mi Calm Calm - N/A   Overcast
4:55 AM 64.4 °F 62.6 °F 94% 29.72 in 10.0 mi South 3.5 mph - N/A   Overcast
5:15 AM 64.4 °F 62.6 °F 94% 29.72 in 7.0 mi Calm Calm - N/A   Overcast
5:35 AM 64.4 °F 62.6 °F 94% 29.73 in 7.0 mi WSW 3.5 mph - N/A   Overcast
6:15 AM 64.4 °F 62.6 °F 94% 29.76 in 10.0 mi West 12.7 mph - N/A   Overcast
6:35 AM 62.6 °F 60.8 °F 94% 29.78 in 3.0 mi WNW 17.3 mph 23.0 mph N/A   Overcast
6:55 AM 60.8 °F 57.2 °F 88% 29.78 in 2.0 mi WNW 15.0 mph - 0.01 in   Overcast
7:15 AM 59.0 °F 57.2 °F 94% 29.80 in 7.0 mi WNW 9.2 mph 16.1 mph N/A   Overcast
7:35 AM 59.0 °F 57.2 °F 94% 29.81 in 10.0 mi WNW 8.1 mph - N/A   Overcast
7:55 AM 59.0 °F 57.2 °F 94% 29.82 in 10.0 mi WNW 16.1 mph 20.7 mph N/A   Overcast
8:15 AM 59.0 °F 57.2 °F 94% 29.83 in 10.0 mi WNW 10.4 mph - N/A   Overcast
8:35 AM 60.8 °F 55.4 °F 82% 29.84 in 10.0 mi NW 11.5 mph 18.4 mph N/A   Overcast
9:15 AM 60.8 °F 55.4 °F 82% 29.87 in 10.0 mi NW 12.7 mph 18.4 mph N/A   Overcast
9:35 AM 60.8 °F 55.4 °F 82% 29.89 in 10.0 mi WNW 17.3 mph 24.2 mph N/A   Overcast
9:55 AM 62.6 °F 55.4 °F 77% 29.90 in 10.0 mi NW 13.8 mph 26.5 mph N/A   Overcast
10:15 AM 60.8 °F 55.4 °F 82% 29.91 in 10.0 mi WNW 17.3 mph 23.0 mph N/A   Overcast
10:35 AM 60.8 °F 53.6 °F 77% 29.91 in 10.0 mi NW 15.0 mph 20.7 mph N/A   Overcast
11:15 AM 64.4 °F 53.6 °F 68% 29.91 in 10.0 mi WNW 17.3 mph 23.0 mph N/A   Scattered Clouds
11:35 AM 66.2 °F 51.8 °F 60% 29.90 in 10.0 mi NW 15.0 mph 27.6 mph N/A   Scattered Clouds
11:55 AM 68.0 °F 50.0 °F 52% 29.89 in 10.0 mi NW 18.4 mph 24.2 mph N/A   Clear
12:15 PM 68.0 °F 48.2 °F 49% 29.88 in 10.0 mi NW 18.4 mph 26.5 mph N/A   Clear
12:35 PM 69.8 °F 46.4 °F 43% 29.87 in 10.0 mi WNW 18.4 mph 29.9 mph N/A   Clear
12:55 PM 69.8 °F 46.4 °F 43% 29.86 in 10.0 mi WNW 16.1 mph 27.6 mph N/A   Clear
1:15 PM 71.6 °F 41.0 °F 33% 29.84 in 10.0 mi WNW 20.7 mph 32.2 mph N/A   Clear
1:35 PM 73.4 °F 39.2 °F 29% 29.84 in 10.0 mi WNW 21.9 mph 33.4 mph N/A   Clear
1:55 PM 73.4 °F 41.0 °F 31% 29.83 in 10.0 mi WNW 24.2 mph 32.2 mph N/A   Clear
6:15 PM 69.8 °F 41.0 °F 35% 29.90 in 10.0 mi NNW 11.5 mph 20.7 mph N/A   Unknown
6:55 PM 66.2 °F 41.0 °F 40% 29.92 in 10.0 mi NNW 15.0 mph 19.6 mph N/A   Clear
7:15 PM 66.2 °F 42.8 °F 43% 29.93 in 10.0 mi NNW 13.8 mph 20.7 mph N/A   Clear
7:35 PM 64.4 °F 42.8 °F 45% 29.94 in 10.0 mi North 15.0 mph 20.7 mph N/A   Clear
7:55 PM 64.4 °F 42.8 °F 45% 29.96 in 10.0 mi NNW 12.7 mph 19.6 mph N/A   Clear
8:15 PM 64.4 °F 42.8 °F 45% 29.97 in 10.0 mi NNW 13.8 mph 18.4 mph N/A   Clear
8:35 PM 62.6 °F 42.8 °F 48% 29.98 in 10.0 mi North 10.4 mph - N/A   Clear
8:55 PM 62.6 °F 44.6 °F 52% 30.00 in 10.0 mi North 10.4 mph - N/A   Clear
9:15 PM 60.8 °F 44.6 °F 55% 30.01 in 10.0 mi North 10.4 mph 16.1 mph N/A   Clear
9:35 PM 60.8 °F 44.6 °F 55% 30.02 in 10.0 mi North 9.2 mph 16.1 mph N/A   Clear
9:55 PM 60.8 °F 44.6 °F 55% 30.02 in 10.0 mi North 10.4 mph 16.1 mph N/A   Clear
10:15 PM 60.8 °F 44.6 °F 55% 30.03 in 10.0 mi North 11.5 mph 18.4 mph N/A   Clear
10:35 PM 59.0 °F 44.6 °F 59% 30.04 in 10.0 mi North 11.5 mph - N/A   Clear
10:55 PM 59.0 °F 44.6 °F 59% 30.04 in 10.0 mi North 10.4 mph - N/A   Clear
11:15 PM 59.0 °F 44.6 °F 59% 30.04 in 10.0 mi North 10.4 mph - N/A   Clear
11:35 PM 57.2 °F 44.6 °F 63% 30.04 in 10.0 mi North 10.4 mph 17.3 mph N/A   Clear
11:55 PM 57.2 °F 44.6 °F 63% 30.04 in 10.0 mi North 9.2 mph - N/A   Clear